Вернуться в каталог

STARLINK-32120

АктивенСвязьVLEO
NORAD 60265·PAYLOAD·🇺🇸 United States

Запущен Jul 27, 2024 с Cape Canaveral Space Force Station

Loading…

Ближайшие Пролёты (ближайшие 24 часа)

TLE

СвежийSource: CelesTrak SupGP

Эпоха: Sep 14, 2026, 14:35 UTC

1 60265C 24131L   26257.60812500 -.00025755  00000+0 -76128-3 0  2573
2 60265  53.1576 254.9152 0001225  79.2621 257.0149 15.34389285    10

Отслеживайте STARLINK-32120 в реальном времени с AllMySat

Download on the App Store